Imperial, NE

9:48 PM MDT on August 30, 2016 (GMT -0600)
Imperial Municipal

Weather History for KIML - April, 2015

Change the Weather History Date:

Tuesday, April 21, 2015

  Actual Average Record
Temperature  
Mean Temperature 50 °F 50 °F  
Max Temperature 70 °F 64 °F 93 °F (1989)
Min Temperature 30 °F 36 °F 14 °F (1907)
Degree Days  
Heating Degree Days 15 15  
Month to date heating degree days 329 380  
Cooling Degree Days 0 0  
Month to date cooling degree days 0 0  
Year to date cooling degree days 0 0  
Moisture  
Dew Point 28 °F    
Average Humidity 54    
Maximum Humidity 85    
Minimum Humidity 22    
Precipitation  
Precipitation 0.00 in 0.08 in 0.97 in (1991)
Sea Level Pressure  
Sea Level Pressure 29.90 in    
Wind  
Wind Speed 10 mph (NNW)    
Max Wind Speed 28 mph    
Max Gust Speed 34 mph    
Visibility 10 miles    
Events      
T = Trace of Precipitation, MM = Missing Value Source: NWS Daily Summary

Daily Weather History Graph

Daily Weather History Graph

Search for Another Location

Airport or City:

Trip Planner

Search our weather history database for the weather conditions in past years. The results will help you decide how hot, cold, wet, or windy it might be!

Date:

Astronomy

Apr. 21, 2015 Rise Set
Actual Time 5:59 AM MDT 7:31 PM MDT
Civil Twilight 5:30 AM MDT 8:00 PM MDT
Nautical Twilight 4:56 AM MDT 8:35 PM MDT
Astronomical Twilight 4:19 AM MDT 9:12 PM MDT
Moon 8:18 AM MDT (4/21) 10:56 PM MDT (4/21)
Length of Visible Light 14h 29m
Length of Day
13h 32m
Waxing Crescent, 11% of the Moon is Illuminated
Apr 21
Waxing Crescent
Apr 25
First Quarter
May 3
Full
May 11
Last Quarter
May 17
New

Hourly Weather History & Observations

Time (MDT) Temp. Windchill Dew Point Humidity Pressure Visibility Wind Dir Wind Speed Gust Speed Precip Events Conditions
12:53 AM 35.6 °F 28.6 °F 26.6 °F 70% 29.90 in 10.0 mi West 9.2 mph - N/A   Clear
1:53 AM 30.9 °F 24.3 °F 26.1 °F 82% 29.94 in 10.0 mi North 6.9 mph - N/A   Clear
2:53 AM 33.1 °F 27.7 °F 26.1 °F 75% 29.92 in 10.0 mi NNW 5.8 mph - N/A   Clear
3:53 AM 33.1 °F 30.0 °F 26.1 °F 75% 29.94 in 10.0 mi West 3.5 mph - N/A   Clear
4:53 AM - - - N/A% 29.90 in - North - - N/A   Unknown
5:53 AM 30.9 °F 25.2 °F 24.1 °F 76% 29.93 in 10.0 mi NW 5.8 mph - N/A   Clear
6:53 AM 32.0 °F 25.6 °F 26.1 °F 79% 29.94 in 10.0 mi WSW 6.9 mph - N/A   Clear
7:53 AM 39.0 °F 35.7 °F 28.0 °F 65% 29.94 in 10.0 mi NW 4.6 mph - N/A   Clear
8:53 AM 46.9 °F - 27.0 °F 46% 29.93 in 10.0 mi Calm Calm - N/A   Clear
9:53 AM 52.0 °F - 28.9 °F 41% 29.92 in 10.0 mi WSW 4.6 mph - N/A   Clear
10:53 AM 57.0 °F - 30.9 °F 37% 29.90 in 10.0 mi WSW 6.9 mph - N/A   Clear
11:53 AM 62.1 °F - 32.0 °F 32% 29.87 in 10.0 mi WSW 13.8 mph - N/A   Clear
12:53 PM 66.0 °F - 30.0 °F 26% 29.83 in 10.0 mi WNW 18.4 mph 25.3 mph N/A   Clear
1:53 PM 68.0 °F - 28.9 °F 23% 29.83 in 10.0 mi WNW 15.0 mph 25.3 mph N/A   Partly Cloudy
2:53 PM 69.1 °F - 30.0 °F 23% 29.81 in 10.0 mi WNW 19.6 mph - N/A   Mostly Cloudy
3:53 PM 66.9 °F - 28.0 °F 23% 29.81 in 10.0 mi NNW 19.6 mph 25.3 mph N/A   Mostly Cloudy
4:53 PM 66.9 °F - 28.9 °F 24% 29.81 in 10.0 mi NNW 19.6 mph 26.5 mph N/A   Mostly Cloudy
5:53 PM 66.0 °F - 28.9 °F 25% 29.83 in 10.0 mi North 19.6 mph 27.6 mph N/A   Scattered Clouds
6:53 PM 62.1 °F - 30.0 °F 30% 29.86 in 10.0 mi North 15.0 mph - N/A   Clear
7:10 PM 57.0 °F - 30.0 °F 36% 29.86 in 10.0 mi NE 24.2 mph 28.8 mph N/A   Clear
7:53 PM 53.1 °F - 30.0 °F 41% 29.91 in 10.0 mi NE 17.3 mph - N/A   Clear
8:53 PM 46.0 °F 41.4 °F 30.0 °F 54% 29.95 in 10.0 mi ENE 9.2 mph - N/A   Clear
9:53 PM 42.1 °F 36.6 °F 30.0 °F 62% 29.99 in 10.0 mi ENE 9.2 mph - N/A   Clear
10:53 PM 39.9 °F 35.1 °F 28.9 °F 65% 30.00 in 10.0 mi ENE 6.9 mph - N/A   Clear
11:53 PM 37.0 °F 31.6 °F 28.0 °F 70% 30.01 in 10.0 mi East 6.9 mph - N/A   Clear